星链-32582 (STARLINK-32582)

导读 | 星芒AI

STARLINK-32582 是 SpaceX Starlink 卫星互联网计划中的一颗低轨卫星,属于第三代星链卫星(v1.5 或 v2 版本)。该卫星于2023年发射,运行在约550公里高度的近地轨道,旨在为全球用户提供高速、低延迟的互联网服务。它采用先进推进系统,具备自主避障能力,并支持激光通信以提升网络效率。作为星链星座的一部分,STARLINK-32582 有助于扩大覆盖范围,提升连接质量,尤其在偏远和网络基础设施薄弱地区发挥重要作用。

基本信息
目录编号:
62033
目录名称:
STARLINK-32582
国际标识:
2024-216B
轨道中心:
EARTH
卫星名称:
星链-32582
卫星全名:
星链-32582 (STARLINK-32582)
卫星状态:
在轨 (已飞行394 天)
发射日期:
2024-11-21 UTC
国别 :
美国 (US)
星等 :
--
轨道信息
数据来源 国际轨道数据
星历时间: 2025-12-20T01:10:22+0800
17小时前
查看轨道信息
半长轴: 6861.202km
偏心率: 0.0000529
轨道倾角: 42.998°
近地点辐角 19.972°
升交点赤经 354.983°
平近点角 340.115°
近地点: 482.702km
远地点: 483.428km
周期: 94.267分钟
每日圈数: 15.27575
详细信息
固有亮度:
5
最大亮度:
2.5
卫星平台:
Starlink V1.0
覆盖范围:
全球
运营商:
太空探索技术公司
运营商所在国:
美国
制造商(研发单位):
太空探索技术公司
制造商所在国:
美国
使用方式:
暂无
卫星简介
Starlink 计划是 SpaceX 推出的全球卫星互联网项目,通过发射低轨道卫星,为全球尤其是偏远地区提供高速、低延迟的互联网服务。自 2019 年起,Starlink 已部署数千颗卫星,旨在缩小全球数字鸿沟,推动互联网普及。该项目还为军事、航空等行业提供通信支持,带来广泛经济效益。
2D轨道图
3D轨道图
轨道高度分析图
轨道倾角分析图
轨道综合分析图
查看轨道综合分析图